Flag for United Kingdom Weather past 2 weeks in Chesterfield, England, United Kingdom

Now
53 °F

Cool.


Feels Like: 52 °F
Forecast: 45 / 61 °F
Wind: 6 mph from Northwest

Location: Nottingham Weather Centre

Current Time: May 25, 2015 at 11:13:48 PM

Latest Report: May 25, 2015 at 9:00 PM


Visibility: 22 mi

Pressure: 30.12 "Hg

Humidity: 72%

Dew point: 44 °F

Location of ChesterfieldLocation

Historic Weather in Chesterfield — Graph

°F

Chesterfield temperature yesterday

Maximum temperature yesterday: 59 °F (at 1:00 PM)
Minimum temperature yesterday: 48 °F (at 11:00 PM)
Average temperature yesterday: 54 °F

Past Weeks' High & Low Weather Summary

 TemperatureHumidityPressure
High67 °F (May 11, 2:00 PM)98% (May 14, 3:00 AM)30.32 "Hg (May 14, 3:00 AM)
Low42 °F (May 17, 6:00 AM)35% (May 11, 5:00 PM)29.47 "Hg (May 19, 2:00 AM)
Average52 °F72%30.05 "Hg
* Reported May 10 9:00 PM — May 25 9:00 PM, Chesterfield, Weather by CustomWeather, © 2015

Note: Actual official high and low records may vary slightly from our data, if they occured in-between our weather recording intervals... More about our weather records

Advertising

Chesterfield weather history for previous 24 hours

 ConditionsComfort  
Time TempWeatherWind HumidityBarometerVisibility
9:00 PM
Mon, May 25
53 °FCool.6 mph72%30.12 "Hg22 mi
8:00 PM56 °FCool.6 mph66%30.11 "Hg10 mi
7:00 PM54 °FCool.7 mph69%30.12 "Hg10 mi
6:00 PM54 °FCool.5 mph73%30.11 "Hg8 mi
5:00 PM55 °FCool.7 mph69%30.11 "Hg25 mi
4:00 PM56 °FCool.5 mph69%30.10 "Hg14 mi
3:00 PM55 °FSmoke.6 mph65%30.10 "Hg6 mi
2:00 PM56 °FCool.6 mph63%30.10 "Hg11 mi
1:00 PM55 °FCool.7 mph63%30.10 "Hg19 mi
12:00 PM55 °FCool.7 mph64%30.10 "Hg19 mi
11:00 AM53 °FCool.7 mph68%30.10 "Hg11 mi
10:00 AM52 °FCool.3 mph73%30.11 "Hg25 mi
9:00 AM51 °FCool.7 mph76%30.11 "Hg7 mi
8:00 AM49 °FCool.5 mph86%30.10 "Hg9 mi
7:00 AM47 °FCool.3 mph88%30.10 "Hg12 mi
6:00 AM47 °FCool.2 mph88%30.10 "Hg6 mi
5:00 AM47 °FCool.3 mph87%30.11 "Hg7 mi
3:00 AM46 °FCool.3 mph86%30.11 "Hg7 mi
2:00 AM47 °FCool.3 mph78%30.11 "Hg22 mi
1:00 AM47 °FCool.3 mph77%30.12 "Hg17 mi
12:00 AM48 °FCool.2 mph73%30.13 "Hg11 mi
11:00 PM
Sun, May 24
48 °FCool.3 mph71%30.13 "Hg28 mi
Weather by CustomWeather, © 2015

See weather overviewHow to use our weather pages